Regional Weather Roundup
Issued by NWS Sterling, VA

Home | Current Version | Previous Version | Text Only | Print | Product List | Glossary Off
Versions: 1 2 3 4 5 6 7 8 9 10 11 12 13 14 15 16 17 18 19 20 21 22 23 24 25 26 27 28 29 30 31 32 33 34 35 36 37 38 39 40 41 42 43 44 45 46 47 48 49 50

504
ASUS41 KLWX 221411
RWRLWX

REGIONAL WEATHER ROUNDUP
NATIONAL WEATHER SERVICE BALTIMORE MD/WASHINGTON DC
1000 AM EDT SUN OCT 22 2017

Note: "FAIR" indicates few or no clouds below 12,000 feet
with no significant weather and/or obstructions to visibility.
 TC=TEMPERATURE CELSIUS

 * =Non NWS site. Station does not report precipitation (e.g. rain,
    snow, etc.), thunder, or fog.

DCZ001-MDZ009-015-VAZ040>042-051-053>054-221500-
WASHINGTON METRO

CITY           SKY/WX    TMP DP  RH WIND       PRES   REMARKS
WASHINGTON NAT MOSUNNY   61  55  81 CALM      30.41S
DULLES         MOSUNNY   59  53  80 CALM      30.39F
ANDREWS AFB    SUNNY     64  56  74 S5        30.40R
FT BELVOIR     SUNNY     61  55  82 CALM      30.40S
QUANTICO       MOSUNNY   61  59  93 CALM      30.40F
COLLEGE PARK*  SUNNY     56  49  77 CALM      30.40S
LEESBURG*      SUNNY     59  52  77 CALM      30.41S
MANASSAS*      SUNNY     59  53  80 CALM      30.40S
GAITHERSBURG*  SUNNY     62  53  72 SE6       30.41R

$$

MDZ006>007-011-014-221500-
BALTIMORE METRO

CITY           SKY/WX    TMP DP  RH WIND       PRES   REMARKS
BWI AIRPORT    MOSUNNY   61  57  87 E6        30.40S
MD SCIENCE CTR   N/A     63  55  75 MISG      30.41S
MARTIN STATE   MOSUNNY   61  59  94 CALM      30.43S
ANNAPOLIS      SUNNY     65  62  90 SE5       30.40S
FORT MEADE*    SUNNY     55  54  94 CALM      30.43R

$$

MDZ012-015-019>023-221500-
MARYLAND EASTERN SHORE

CITY           SKY/WX    TMP DP  RH WIND       PRES   REMARKS
OCEAN CITY     SUNNY     68  61  78 SE7       30.42R
SALISBURY      SUNNY     62  60  93 CALM      30.41S
CAMBRIDGE*     FOG       59  59 100 CALM      30.41S VSB 1/4
EASTON*        MOSUNNY   64  57  77 CALM      30.44S

$$

MDZ017>025-221500-
SOUTHERN MARYLAND

CITY           SKY/WX    TMP DP  RH WIND       PRES   REMARKS
PATUXENT RIVER PTSUNNY   66  62  87 CALM      30.40S
ST INIGOES     SUNNY     67  62  84 CALM      30.40S
LEONARDTOWN*   NOT AVBL

$$

MDZ003>005-221500-
NORTH CENTRAL MARYLAND

CITY           SKY/WX    TMP DP  RH WIND       PRES   REMARKS
FREDERICK*     SUNNY     57  48  72 CALM      30.43S
HAGERSTOWN APT SUNNY     58  51  78 W3        30.38F
WESTMINSTER*   SUNNY     61  50  67 SE6       30.40S

$$

MDZ501>502-221500-
WESTERN MARYLAND

CITY           SKY/WX    TMP DP  RH WIND       PRES   REMARKS
OAKLAND*       SUNNY     59  48  67 SE5       30.35R
CUMBERLAND*    SUNNY     54  50  87 CALM      30.42R

$$

VAZ025>031-221500-
SHENANDOAH VALLEY

CITY           SKY/WX    TMP DP  RH WIND       PRES   REMARKS
WINCHESTER*    SUNNY     59  46  63 CALM      30.38S
FRONT ROYAL*   SUNNY     55  52  88 CALM      30.38R
LURAY*         SUNNY     57  54  88 S3        30.39R
NEW MARKET*    SUNNY     56  51  81 CALM      30.38S
STAUNTON*      SUNNY     55  50  82 CALM      30.41S
WAYNESBORO*    SUNNY     60  54  81 CALM      30.39S

$$

WVZ021-048>050-054>055-221500-
EASTERN WEST VIRGINIA PANHANDLE

CITY           SKY/WX    TMP DP  RH WIND       PRES   REMARKS
MARTINSBURG    SUNNY     59  49  69 CALM      30.38R
PETERSBURG*    MOSUNNY   50  49  99 CALM      30.38S

$$

VAZ036>039-050-221500-
CENTRAL FOOTHILLS

CITY           SKY/WX    TMP DP  RH WIND       PRES   REMARKS
CHARLOTTESVILL SUNNY     62  55  77 CALM      30.38S
CULPEPER*      SUNNY     58  50  76 CALM      30.40S
ORANGE*        SUNNY     59  54  82 CALM      30.39S
GORDONSVILLE*  SUNNY     59  55  85 CALM      30.38S
WARRENTON*     SUNNY     61  50  67 CALM      30.39S

$$

VAZ055>057-221500-
NORTH AND CENTRAL PIEDMONT

CITY           SKY/WX    TMP DP  RH WIND       PRES   REMARKS
FREDERICKSBRG* SUNNY     60  57  92 E3        30.39S
STAFFORD*      SUNNY     58  56  96 CALM      30.44S

$$

NCZ024-NYZ072-PAZ021-071-VAZ022-071-221500-
OTHER REGIONAL OBSERVATIONS

CITY           SKY/WX    TMP DP  RH WIND       PRES   REMARKS
NEW YORK CITY  MOSUNNY   65  48  54 CALM      30.43F
PHILADELPHIA   PTSUNNY   56  54  93 CALM      30.42F
PITTSBURGH     PTSUNNY   59  53  80 SE6       30.31R
ROANOKE        SUNNY     58  53  84 CALM      30.41R
RICHMOND       MOSUNNY   62  57  83 CALM      30.39S
RALEIGH        PTSUNNY   65  59  81 VRB3      30.38S

$$

ANZ530>537-221500-
MARINE OBSERVATIONS

STATION/POSITION TIME  TEMP    WIND        PRES
                       AIR SEA DIR/SP/G
                 (UTC) (F)     (DEG/KT/KT) (MB)
THOMAS PT LIGHT  1400   61 68  110/  4/  5   N/A
BALT KEY BRIDGE  1342   60      70/  2/  3 1029.8R
COVE POINT       1342   65     160/  4/  5 1030.3R
LEWISETTA        1342   65 66     CALM     1029.4S
SOLOMONS ISLAND  1342   65 69  200/  1/  2 1029.1F
PINEY POINT      1330          130/  2/  2   N/A

$$





USA.gov is the U.S. government's official web portal to all federal, state and local government web resources and services.